• MPC Preparation (Info)

  • MPEC 2015-F101: 2015 FE37

    The following Minor Planet Electronic Circular may be linked-to from your own Web pages, but must not otherwise be redistributed electronically.

    A form allowing access to any MPEC is at the bottom of this page.


    Read MPEC 2015-F100 Read MPEC 2015-F102


    M.P.E.C. 2015-F101                               Issued 2015 Mar. 25, 14:11 UT
    
         The Minor Planet Electronic Circulars contain information on unusual
             minor planets and routine data on comets.  They are published
       on behalf of Commission 20 of the International Astronomical Union by the
              Minor Planet Center, Smithsonian Astrophysical Observatory,
                              Cambridge, MA 02138, U.S.A.
    
                 Prepared using the Tamkin Foundation Computer Network
    
                                  MPC@CFA.HARVARD.EDU
                URL https://www.minorplanetcenter.net/    ISSN 1523-6714
    
                                       2015 FE37
    
    Observations:
         K15F37E  C2015 03 20.35742 10 06 39.973-01 21 11.16         22.5 wLEF101F51
         K15F37E  C2015 03 20.37010 10 06 37.852-01 21 04.41         22.3 wLEF101F51
         K15F37E* C2015 03 21.39084 10 03 52.808-01 11 37.18         22.5 wLEF101F51
         K15F37E  C2015 03 21.40341 10 03 50.749-01 11 29.90         22.3 wLEF101F51
         K15F37E  C2015 03 21.41591 10 03 48.717-01 11 23.13         22.5 wLEF101F51
         K15F37E _C2015 03 22.23680310 01 38.032-01 03 45.92         22.0 RtEF101568
         K15F37E _C2015 03 22.23811310 01 37.827-01 03 45.13         22.1 RtEF101568
         K15F37E _C2015 03 22.23943210 01 37.613-01 03 44.47         22.0 RtEF101568
         K15F37E 2C2015 03 24.34079409 56 07.787-00 44 15.22         22.2 RtEF101568
         K15F37E 2C2015 03 24.34333709 56 07.386-00 44 13.78         22.5 RtEF101568
    
    Observer details:
    568 Mauna Kea.  Observers R. J. Wainscoat, M. Micheli, P. Forshay,
        D. J. Tholen.  Measurers M. Micheli, R. J. Wainscoat, D. J. Tholen.
        2.24-m University of Hawaii reflector, 3.6-m Canada-France-Hawaii
        Telescope + CCD.
    F51 Pan-STARRS 1, Haleakala.  Observers B. Gibson, T. Goggia, N. Primak,
        A. Schultz, M. Willman.  Measurers K. Chambers, S. Chastel, L. Denneau,
        H. Flewelling, M. Huber, E. Magnier, E. Schunova, R. Wainscoat, C. Waters,
        R. Weryk, P. Veres.  1.8-m Ritchey-Chretien + CCD.
    
    Orbital elements:
    2015 FE37                                                Earth MOID = 0.2949 AU
    Epoch 2015 June 27.0 TT = JDT 2457200.5                 MPC
    M 333.09761              (2000.0)            P               Q
    n   0.68705312     Peri.  358.12111     +0.88069777     +0.43281264
    a   1.2719670      Node   333.43337     -0.42878617     +0.55578841
    e   0.8192938      Incl.   25.48990     -0.20128053     +0.70976930
    P   1.43           H   20.1           G   0.15           U   9
    Residuals in seconds of arc
    150320 F51  0.1+  0.2+    150321 F51  0.2+  0.0     150324 568  0.0   0.0
    150320 F51  0.1-  0.1-    150322 568  0.1-  0.0     150324 568  0.0   0.0
    150321 F51  0.1-  0.1-    150322 568  0.0   0.1+
    150321 F51  0.1-  0.1+    150322 568  0.0   0.0
    
    Ephemeris:
    2015 FE37                a,e,i = 1.27, 0.82, 25                  q = 0.2299
    Date    TT    R. A. (2000) Decl.     Delta      r     Elong.  Phase     V
    2015 02 23    11 14 52.7 -04 24 37   1.1273  2.0863   160.6     9.1    22.6
    ...
    2015 03 10    10 35 34.1 -02 52 00   1.0290  2.0088   166.9     6.4    22.2
    ...
    2015 03 18    10 13 07.4 -01 42 48   1.0109  1.9621   156.0    11.9    22.3
    ...
    2015 03 24    09 57 00.7 -00 47 22   1.0122  1.9246   146.7    16.5    22.4
    2015 03 25    09 54 26.6 -00 38 07   1.0135  1.9181   145.1    17.3    22.5
    2015 03 26    09 51 55.1 -00 28 54   1.0152  1.9116   143.6    18.1    22.5
    ...
    2015 04 01    09 37 44.6 +00 24 46   1.0308  1.8710   134.4    22.4    22.6
    ...
    2015 04 09    09 21 52.6 +01 29 06   1.0641  1.8133   122.8    27.7    22.8
    ...
    2015 04 24    09 02 13.1 +02 57 21   1.1481  1.6929   103.4    35.3    23.0
    
    A. U. Tomatic                (C) Copyright 2015 MPC           M.P.E.C. 2015-F101
    

    Read MPEC 2015-F100 Read MPEC 2015-F102


    MPEC number:

    Enter an MPEC number in one of the following forms:

    • 1997-B01 (the full form)
    • J97B01 (the packed version of the full form)
    • B01 (the abbreviated form)